User: anonymous   Login
Location: Griffin Ranch
(33.6186°N, 110.6622°W)
Time: 13:12:06
(UTC-07:00)
Language:

Cosmos 1812 - Orbit

View from above orbital plane
View from above orbital plane
View from above satellite
View from above satellite

Ground track
Ground track

The orbit data is extracted from the following two-line orbital elements,

1 17295U 87003A   16151.10754414  .00001645  00000-0  89630-4 0  9998
2 17295  82.5133 161.6668 0004316  39.9102 320.2446 15.13736433600991
Epoch (UTC): 30 May 2016 02:34:51
Eccentricity: 0.0004316
inclination: 82.5133°
perigee height: 522 km
apogee height: 528 km
right ascension of ascending node: 161.6668°
argument of perigee: 39.9102°
revolutions per day: 15.13736433
mean anomaly at epoch: 320.2446°
orbit number at epoch: 60099

The dashed part of the orbit path shows where the satellite is in the earth's shadow,  

DLR